Starlink 31378

operational
NORAD ID: 58932 Int'l Des: 2024-027 Owner: SPXS Country: US Constellation: starlink
LEOCIRCULAR

Über Starlink 31378

Beschreibung wird geladen...

Live-Position

3D-Globus wird geladen...

Nächste Überflüge

Höhenverlauf

Altitude vs Time

uPlot chart will show altitude changes over time

Zweizeiliger Elementsatz

1 58932U 24027B 25260.63310330 -.00000527 00000-0 -56694-5 0 9997
2 58932 53.1635 33.3731 0001945 133.6440 226.4723 15.30192739 90838
Epoch: 17. Sept. 2025 • Age: 25 hours

Aktueller Status

Höhe 492.5 km
Geschwindigkeit 7.62 km/s
Subsatellitenpunkt -46.87°S, 98.21°E
Startdatum 10. Feb. 2024
Alter 1.6 years
Typ internet

Technische Details

Klassifizierung Payload
Masse 730.00 kg
Trockenmasse 700.00 kg
Gesamtmasse 730.00 kg
Länge 0.30 m
Durchmesser 4.10 m
Spannweite 29.00 m
Form Box + pan
Hersteller SPXS
Bus-Typ Starlink V2M
Phasenstatus In Orbit
Besitzer/Staat SPXS/US

Große Konstellationen

Loading constellations...